CW4185 Weather Reports


time (UTC)temp
C
wind
direction
speed
KPH
gust
KPH
rain 1hr
cm
rain 24hr
cm
rain mn
cm
humidity
%
barometer
mb
20260504150647 22 185 8.0 16.1 0.00 0.00 0.00 46 1017.9
20260504150146 22 168 8.0 14.5 0.00 0.00 0.00 46 1017.6
20260504141149 21 194 6.4 8.0 0.00 0.00 0.00 56 1017.9
20260504140647 21 166 4.8 6.4 0.00 0.00 0.00 59 1017.9
20260504140146 21 152 1.6 6.4 0.00 0.00 0.00 56 1017.6
20260504130648 19 223 4.8 4.8 0.00 0.00 0.00 66 1017.9
20260504130146 18 180 0.0 3.2 0.00 0.00 0.00 68 1017.6
20260504120148 15 162 1.6 1.6 0.00 0.00 0.00 82 1017.3
20260504110646 14 141 0.0 3.2 0.00 0.00 0.00 85 1017.3
20260504110147 14 145 1.6 1.6 0.00 0.00 0.00 84 1016.9
20260504100149 15 193 1.6 3.2 0.00 0.00 0.00 79 1017.3
20260504081646 15 210 1.6 1.6 0.00 0.00 0.00 79 1017.3
20260504081147 15 235 1.6 1.6 0.00 0.00 0.00 79 1016.9
20260504080647 15 174 1.6 3.2 0.00 0.00 0.00 78 1017.3
20260504080147 15 229 0.0 1.6 0.00 0.00 0.00 78 1017.3
20260504070148 16 166 4.8 6.4 0.00 0.00 0.00 76 1017.6
20260504060146 17 197 3.2 3.2 0.00 0.00 0.00 72 1018.3
20260504050646 17 171 4.8 8.0 0.00 0.00 0.00 66 1019.0
20260504050146 17 210 3.2 4.8 0.00 0.00 0.00 66 1019.0
20260504045646 17 203 3.2 4.8 0.00 0.00 0.00 66 1019.0
20260504045147 17 209 4.8 6.4 0.00 0.00 0.00 66 1019.0
20260504044646 17 205 1.6 4.8 0.00 0.00 0.00 66 1019.0
20260504044146 17 199 4.8 4.8 0.00 0.00 0.00 66 1019.0
20260504043647 17 199 3.2 4.8 0.00 0.00 0.00 65 1019.0
20260504043146 17 212 3.2 6.4 0.00 0.00 0.00 66 1019.0
20260504042647 17 155 4.8 8.0 0.00 0.00 0.00 67 1019.0
20260504042146 17 221 4.8 6.4 0.00 0.00 0.00 67 1019.0
20260504041646 17 220 8.0 9.7 0.00 0.00 0.00 67 1019.0
20260504041146 17 226 6.4 12.9 0.00 0.00 0.00 68 1019.3
20260504040646 17 205 8.0 9.7 0.00 0.00 0.00 69 1019.0
20260504040146 18 216 6.4 9.7 0.00 0.00 0.00 68 1019.0
20260504035647 18 222 9.7 14.5 0.00 0.00 0.00 68 1019.3
20260504035147 18 252 4.8 9.7 0.00 0.00 0.00 67 1019.0
20260504034646 18 203 6.4 6.4 0.00 0.00 0.00 66 1019.0
20260504034149 18 176 4.8 8.0 0.00 0.00 0.00 66 1019.0
20260504033647 18 199 6.4 8.0 0.00 0.00 0.00 67 1019.0
20260504033146 18 177 3.2 8.0 0.00 0.00 0.00 67 1019.0
20260504032651 18 168 6.4 8.0 0.00 0.00 0.00 67 1019.0
20260504032147 18 163 1.6 4.8 0.00 0.00 0.00 66 1019.0
20260504031647 18 180 3.2 4.8 0.00 0.00 0.00 66 1019.0
20260504031146 18 169 3.2 4.8 0.00 0.00 0.00 66 1019.0
20260504030646 18 161 4.8 4.8 0.00 0.00 0.00 66 1019.0
20260504030147 18 151 3.2 4.8 0.00 0.00 0.00 65 1019.0
20260504025647 18 155 4.8 4.8 0.00 0.00 0.00 64 1019.0
20260504025147 18 141 4.8 4.8 0.00 0.00 0.00 63 1018.6
20260504024646 18 167 1.6 3.2 0.00 0.00 0.00 62 1019.0
20260504024151 19 44 0.0 4.8 0.00 0.00 0.00 60 1019.0
20260504023649 19 146 4.8 4.8 0.00 0.00 0.00 59 1018.6
20260504023146 19 117 0.0 3.2 0.00 0.00 0.00 59 1018.6
20260504022647 19 142 3.2 4.8 0.00 0.00 0.00 58 1019.0
20260504022147 19 139 4.8 6.4 0.00 0.00 0.00 58 1018.6
20260504021646 20 149 3.2 3.2 0.00 0.00 0.00 57 1018.6
20260504021146 20 127 0.0 3.2 0.00 0.00 0.00 55 1018.3
20260504020646 20 127 4.8 6.4 0.00 0.00 0.00 54 1018.6
20260504020146 20 108 3.2 4.8 0.00 0.00 0.00 53 1018.3
20260504015646 20 165 3.2 6.4 0.00 0.00 0.00 51 1018.3
20260504015147 20 171 3.2 4.8 0.00 0.00 0.00 49 1018.3
20260504014647 20 197 3.2 4.8 0.00 0.00 0.00 49 1018.3
20260504014146 20 205 3.2 6.4 0.00 0.00 0.00 49 1018.3
20260504013646 20 197 4.8 6.4 0.00 0.00 0.00 48 1017.9
20260504013146 21 199 3.2 4.8 0.00 0.00 0.00 47 1018.3
20260504012647 21 212 1.6 4.8 0.00 0.00 0.00 46 1017.9
20260504012146 21 220 1.6 1.6 0.00 0.00 0.00 46 1017.9
20260504011648 21 190 0.0 3.2 0.00 0.00 0.00 44 1018.3
20260504011148 21 212 1.6 1.6 0.00 0.00 0.00 44 1017.9
20260504010646 21 255 0.0 3.2 0.00 0.00 0.00 43 1017.9
20260504010146 22 223 1.6 1.6 0.00 0.00 0.00 42 1017.9
20260504005646 22 196 0.0 3.2 0.00 0.00 0.00 41 1017.9
20260504005146 22 265 0.0 3.2 0.00 0.00 0.00 40 1017.9
20260504004646 22 315 0.0 1.6 0.00 0.00 0.00 39 1017.6
20260504004146 22 354 3.2 3.2 0.00 0.00 0.00 39 1017.9
20260504003647 22 316 3.2 3.2 0.00 0.00 0.00 39 1017.6
20260504003147 22 295 3.2 4.8 0.00 0.00 0.00 38 1017.6
20260504002646 23 277 0.0 4.8 0.00 0.00 0.00 38 1017.6
20260504002147 23 337 0.0 6.4 0.00 0.00 0.00 38 1017.6
20260504001646 23 286 4.8 8.0 0.00 0.00 0.00 37 1017.6
20260504001146 23 279 3.2 6.4 0.00 0.00 0.00 36 1017.3
20260504000646 23 300 3.2 8.0 0.00 0.00 0.00 36 1017.6
20260504000148 23 294 4.8 8.0 0.00 0.00 0.00 36 1017.3
20260503235646 23 311 4.8 6.4 0.00 0.00 0.00 35 1017.6
20260503235146 23 12 3.2 8.0 0.00 0.00 0.00 36 1017.6
20260503234646 23 317 1.6 8.0 0.00 0.00 0.00 35 1017.6
20260503234146 23 309 4.8 9.7 0.00 0.00 0.00 36 1017.9
20260503233646 23 287 6.4 14.5 0.00 0.00 0.00 35 1017.9
20260503233146 24 298 6.4 9.7 0.00 0.00 0.00 36 1017.6
20260503232646 23 330 8.0 8.0 0.00 0.00 0.00 36 1017.9
20260503232147 23 312 11.3 17.7 0.00 0.00 0.00 35 1017.6
20260503231646 23 301 4.8 14.5 0.00 0.00 0.00 35 1017.9
20260503231147 24 293 14.5 17.7 0.00 0.00 0.00 35 1017.6
20260503230647 24 306 9.7 11.3 0.00 0.00 0.00 35 1017.9
20260503230146 24 280 8.0 11.3 0.00 0.00 0.00 35 1017.6
20260503225647 23 289 12.9 14.5 0.00 0.00 0.00 35 1017.9
20260503225146 24 301 8.0 11.3 0.00 0.00 0.00 34 1017.9
20260503224647 25 315 6.4 11.3 0.00 0.00 0.00 35 1017.9
20260503224146 25 309 4.8 6.4 0.00 0.00 0.00 34 1017.9
20260503223647 25 311 4.8 11.3 0.00 0.00 0.00 35 1017.9
20260503223146 24 282 1.6 8.0 0.00 0.00 0.00 35 1017.9
20260503222647 24 30 11.3 14.5 0.00 0.00 0.00 34 1017.9
20260503222147 24 338 3.2 11.3 0.00 0.00 0.00 35 1017.9
20260503221646 23 31 3.2 11.3 0.00 0.00 0.00 35 1017.9
20260503221146 24 283 9.7 14.5 0.00 0.00 0.00 34 1017.9
20260503220648 23 314 11.3 17.7 0.00 0.00 0.00 34 1017.9
20260503220146 23 293 0.0 11.3 0.00 0.00 0.00 35 1018.3
20260503215647 24 308 9.7 12.9 0.00 0.00 0.00 34 1017.9
20260503215146 25 330 6.4 6.4 0.00 0.00 0.00 33 1018.3
20260503214646 25 20 6.4 16.1 0.00 0.00 0.00 34 1018.6
20260503214151 23 294 3.2 12.9 0.00 0.00 0.00 33 1018.3
20260503213647 23 76 4.8 11.3 0.00 0.00 0.00 34 1018.6
20260503213146 23 292 8.0 14.5 0.00 0.00 0.00 34 1018.6
20260503212646 24 315 6.4 14.5 0.00 0.00 0.00 34 1018.6
20260503212148 23 140 3.2 11.3 0.00 0.00 0.00 34 1018.6
20260503211646 23 15 9.7 14.5 0.00 0.00 0.00 33 1019.0
20260503211147 23 285 11.3 11.3 0.00 0.00 0.00 32 1019.0
20260503210646 24 285 6.4 14.5 0.00 0.00 0.00 31 1019.0
20260503210147 24 357 6.4 14.5 0.00 0.00 0.00 32 1019.0
20260503205647 25 39 6.4 16.1 0.00 0.00 0.00 31 1019.0
20260503205147 24 35 3.2 8.0 0.00 0.00 0.00 32 1019.0
20260503204647 24 4 4.8 11.3 0.00 0.00 0.00 31 1019.3
20260503204146 24 278 3.2 9.7 0.00 0.00 0.00 32 1019.3
20260503203647 23 1 3.2 12.9 0.00 0.00 0.00 32 1019.6
20260503203147 23 56 3.2 17.7 0.00 0.00 0.00 32 1019.6
20260503202646 24 11 8.0 14.5 0.00 0.00 0.00 33 1019.6
20260503202147 23 36 8.0 12.9 0.00 0.00 0.00 31 1019.6
20260503201646 23 41 11.3 14.5 0.00 0.00 0.00 33 1019.6
20260503201146 23 19 4.8 11.3 0.00 0.00 0.00 33 1020.0
20260503200646 23 45 3.2 12.9 0.00 0.00 0.00 35 1020.0
20260503200147 23 20 8.0 9.7 0.00 0.00 0.00 33 1020.0
20260503195646 23 4 8.0 14.5 0.00 0.00 0.00 33 1020.0
20260503195146 23 346 12.9 17.7 0.00 0.00 0.00 34 1020.0
20260503194646 23 294 4.8 17.7 0.00 0.00 0.00 33 1020.0
20260503194147 23 322 8.0 17.7 0.00 0.00 0.00 34 1020.3
20260503193646 23 315 11.3 16.1 0.00 0.00 0.00 33 1020.3
20260503193146 23 45 6.4 14.5 0.00 0.00 0.00 32 1020.3
20260503192646 23 18 6.4 16.1 0.00 0.00 0.00 33 1020.3
20260503192146 23 315 9.7 16.1 0.00 0.00 0.00 33 1020.7
20260503191647 23 18 1.6 12.9 0.00 0.00 0.00 32 1020.7
20260503191146 23 10 9.7 16.1 0.00 0.00 0.00 33 1020.7
20260503190647 23 335 8.0 14.5 0.00 0.00 0.00 33 1020.7
20260503190147 23 32 9.7 17.7 0.00 0.00 0.00 34 1020.7
20260503185647 23 321 12.9 14.5 0.00 0.00 0.00 34 1020.7
20260503185146 23 313 9.7 16.1 0.00 0.00 0.00 34 1020.7
20260503184646 23 1 6.4 14.5 0.00 0.00 0.00 35 1021.0
20260503184147 23 321 8.0 19.3 0.00 0.00 0.00 36 1021.0
20260503183646 23 35 8.0 12.9 0.00 0.00 0.00 34 1021.0
20260503183147 23 15 8.0 9.7 0.00 0.00 0.00 33 1021.0
20260503182646 23 300 12.9 14.5 0.00 0.00 0.00 32 1021.3
20260503182146 23 41 1.6 9.7 0.00 0.00 0.00 33 1021.0
20260503181646 23 337 6.4 14.5 0.00 0.00 0.00 32 1021.3
20260503181148 23 349 8.0 12.9 0.00 0.00 0.00 32 1021.3
20260503180652 23 115 3.2 6.4 0.00 0.00 0.00 32 1021.3
20260503180146 23 59 9.7 20.9 0.00 0.00 0.00 32 1021.3
20260503175646 23 330 4.8 9.7 0.00 0.00 0.00 31 1021.3
20260503175146 23 12 6.4 8.0 0.00 0.00 0.00 32 1021.3
20260503174646 22 356 4.8 9.7 0.00 0.00 0.00 33 1021.7
20260503174147 23 49 11.3 22.5 0.00 0.00 0.00 32 1021.7
20260503173646 22 100 4.8 8.0 0.00 0.00 0.00 32 1021.7
20260503173148 22 66 6.4 16.1 0.00 0.00 0.00 32 1021.7
20260503172647 22 5 6.4 17.7 0.00 0.00 0.00 31 1022.0
20260503172147 22 48 11.3 20.9 0.00 0.00 0.00 32 1022.0
20260503171647 22 67 4.8 11.3 0.00 0.00 0.00 32 1022.4
20260503171146 22 67 9.7 17.7 0.00 0.00 0.00 31 1022.7
20260503170646 22 52 6.4 19.3 0.00 0.00 0.00 32 1022.4
20260503170146 22 354 8.0 9.7 0.00 0.00 0.00 30 1022.4